| time (UTC) | temp F | wind direction | speed MPH | gust MPH | rain 1hr in | rain 24hr in | rain mn in | humidity % | barometer mb |
| 20260507142009 | 63 | 229 | 1.0 | 4.0 | 0.00 | 0.00 | 0.00 | 41 | 1016.1 |
| 20260507141520 | 62 | 222 | 1.0 | 4.0 | 0.00 | 0.00 | 0.00 | 41 | 1016.1 |
| 20260507141008 | 62 | 224 | 1.0 | 3.0 | 0.00 | 0.00 | 0.00 | 42 | 1016.1 |
| 20260507140511 | 62 | 218 | 2.0 | 3.0 | 0.00 | 0.00 | 0.00 | 41 | 1016.0 |
| 20260507140025 | 62 | 228 | 1.0 | 3.0 | 0.00 | 0.00 | 0.00 | 39 | 1016.0 |
| 20260507135508 | 62 | 226 | 2.0 | 3.0 | 0.00 | 0.00 | 0.00 | 39 | 1016.0 |
| 20260507135008 | 62 | 215 | 1.0 | 2.0 | 0.00 | 0.00 | 0.00 | 41 | 1016.1 |
| 20260507134524 | 62 | 215 | 0.0 | 1.0 | 0.00 | 0.00 | 0.00 | 40 | 1016.1 |
| 20260507134010 | 62 | 216 | 0.0 | 1.0 | 0.00 | 0.00 | 0.00 | 41 | 1016.0 |
| 20260507133509 | 61 | 221 | 0.0 | 2.0 | 0.00 | 0.00 | 0.00 | 40 | 1016.0 |
| 20260507133028 | 60 | 221 | 0.0 | 2.0 | 0.00 | 0.00 | 0.00 | 41 | 1015.9 |
| 20260507132503 | 59 | 227 | 0.0 | 2.0 | 0.00 | 0.00 | 0.00 | 43 | 1015.9 |
| 20260507132003 | 59 | 221 | 1.0 | 2.0 | 0.00 | 0.00 | 0.00 | 43 | 1015.9 |
| 20260507131505 | 58 | 216 | 0.0 | 1.0 | 0.00 | 0.00 | 0.00 | 46 | 1015.9 |
| 20260507131003 | 57 | 217 | 0.0 | 2.0 | 0.00 | 0.00 | 0.00 | 47 | 1015.9 |
| 20260507124003 | 54 | 217 | 0.0 | 1.0 | 0.00 | 0.00 | 0.00 | 50 | 1015.7 |
| 20260507123503 | 54 | 217 | 0.0 | 1.0 | 0.00 | 0.00 | 0.00 | 50 | 1015.7 |
| 20260507123005 | 54 | 217 | 0.0 | 1.0 | 0.00 | 0.00 | 0.00 | 50 | 1015.6 |
| 20260507122502 | 55 | 217 | 0.0 | 1.0 | 0.00 | 0.00 | 0.00 | 50 | 1015.5 |
| 20260507122002 | 55 | 217 | 0.0 | 2.0 | 0.00 | 0.00 | 0.00 | 50 | 1015.5 |
| 20260507121504 | 55 | 217 | 1.0 | 2.0 | 0.00 | 0.00 | 0.00 | 51 | 1015.6 |
| 20260507121004 | 55 | 219 | 0.0 | 1.0 | 0.00 | 0.00 | 0.00 | 52 | 1015.6 |
| 20260507120509 | 54 | 220 | 0.0 | 1.0 | 0.00 | 0.00 | 0.00 | 52 | 1015.6 |
| 20260507120006 | 55 | 221 | 0.0 | 2.0 | 0.00 | 0.00 | 0.00 | 52 | 1015.5 |
| 20260507115502 | 55 | 222 | 1.0 | 2.0 | 0.00 | 0.00 | 0.00 | 51 | 1015.6 |
| 20260507114505 | 55 | 218 | 1.0 | 2.0 | 0.00 | 0.00 | 0.00 | 51 | 1015.8 |
| 20260507114005 | 55 | 218 | 1.0 | 2.0 | 0.00 | 0.00 | 0.00 | 51 | 1015.7 |
| 20260507113503 | 55 | 218 | 1.0 | 2.0 | 0.00 | 0.00 | 0.00 | 51 | 1015.7 |
| 20260507113005 | 55 | 213 | 0.0 | 3.0 | 0.00 | 0.00 | 0.00 | 51 | 1015.6 |
| 20260507112504 | 55 | 221 | 1.0 | 3.0 | 0.00 | 0.00 | 0.00 | 52 | 1015.6 |
| 20260507112005 | 55 | 231 | 2.0 | 3.0 | 0.00 | 0.00 | 0.00 | 52 | 1015.6 |
| 20260507111509 | 55 | 231 | 2.0 | 3.0 | 0.00 | 0.00 | 0.00 | 52 | 1015.6 |
| 20260507111003 | 55 | 224 | 2.0 | 3.0 | 0.00 | 0.00 | 0.00 | 52 | 1015.6 |
| 20260507110503 | 55 | 212 | 1.0 | 2.0 | 0.00 | 0.00 | 0.00 | 52 | 1015.5 |
| 20260507110007 | 56 | 202 | 1.0 | 1.0 | 0.00 | 0.00 | 0.00 | 51 | 1015.5 |
| 20260507105505 | 56 | 188 | 0.0 | 1.0 | 0.00 | 0.00 | 0.00 | 50 | 1015.5 |
| 20260507105003 | 56 | 177 | 0.0 | 1.0 | 0.00 | 0.00 | 0.00 | 50 | 1015.4 |
| 20260507104504 | 56 | 177 | 0.0 | 1.0 | 0.00 | 0.00 | 0.00 | 50 | 1015.4 |
| 20260507104006 | 56 | 177 | 0.0 | 1.0 | 0.00 | 0.00 | 0.00 | 50 | 1015.4 |
| 20260507103503 | 56 | 174 | 0.0 | 0.0 | 0.00 | 0.00 | 0.00 | 50 | 1015.4 |
| 20260507103020 | 56 | 174 | 0.0 | 0.0 | 0.00 | 0.00 | 0.00 | 49 | 1015.4 |
| 20260507102503 | 57 | 173 | 0.0 | 0.0 | 0.00 | 0.00 | 0.00 | 48 | 1015.4 |
| 20260507102003 | 57 | 174 | 0.0 | 1.0 | 0.00 | 0.00 | 0.00 | 47 | 1015.4 |
| 20260507101510 | 57 | 174 | 0.0 | 1.0 | 0.00 | 0.00 | 0.00 | 47 | 1015.5 |
| 20260507101005 | 57 | 178 | 0.0 | 0.0 | 0.00 | 0.00 | 0.00 | 48 | 1015.5 |
| 20260507100505 | 56 | 205 | 0.0 | 0.0 | 0.00 | 0.00 | 0.00 | 48 | 1015.5 |
| 20260507100008 | 57 | 205 | 0.0 | 0.0 | 0.00 | 0.00 | 0.00 | 48 | 1015.5 |
| 20260507095506 | 57 | 205 | 0.0 | 0.0 | 0.00 | 0.00 | 0.00 | 48 | 1015.5 |
| 20260507095004 | 57 | 205 | 0.0 | 0.0 | 0.00 | 0.00 | 0.00 | 47 | 1015.5 |
| 20260507094511 | 58 | 205 | 0.0 | 1.0 | 0.00 | 0.00 | 0.00 | 46 | 1015.6 |
| 20260507094003 | 58 | 205 | 0.0 | 1.0 | 0.00 | 0.00 | 0.00 | 46 | 1015.6 |
| 20260507093503 | 58 | 205 | 0.0 | 0.0 | 0.00 | 0.00 | 0.00 | 45 | 1015.6 |
| 20260507093010 | 59 | 205 | 0.0 | 2.0 | 0.00 | 0.00 | 0.00 | 44 | 1015.7 |
| 20260507092507 | 59 | 221 | 0.0 | 2.0 | 0.00 | 0.00 | 0.00 | 44 | 1015.6 |
| 20260507092003 | 59 | 226 | 1.0 | 2.0 | 0.00 | 0.00 | 0.00 | 44 | 1015.7 |
| 20260507091509 | 59 | 218 | 1.0 | 1.0 | 0.00 | 0.00 | 0.00 | 45 | 1015.8 |
| 20260507091004 | 59 | 218 | 0.0 | 2.0 | 0.00 | 0.00 | 0.00 | 45 | 1015.8 |
| 20260507090505 | 59 | 218 | 0.0 | 3.0 | 0.00 | 0.00 | 0.00 | 44 | 1015.8 |
| 20260507090012 | 59 | 219 | 1.0 | 3.0 | 0.00 | 0.00 | 0.00 | 45 | 1015.9 |
| 20260507085504 | 58 | 231 | 1.0 | 3.0 | 0.00 | 0.00 | 0.00 | 46 | 1015.9 |
| 20260507085004 | 58 | 194 | 1.0 | 2.0 | 0.00 | 0.00 | 0.00 | 49 | 1015.8 |
| 20260507084511 | 57 | 192 | 0.0 | 0.0 | 0.00 | 0.00 | 0.00 | 49 | 1015.9 |
| 20260507084004 | 58 | 192 | 0.0 | 0.0 | 0.00 | 0.00 | 0.00 | 49 | 1015.9 |
| 20260507083504 | 58 | 192 | 0.0 | 0.0 | 0.00 | 0.00 | 0.00 | 49 | 1015.8 |
| 20260507083010 | 57 | 192 | 0.0 | 0.0 | 0.00 | 0.00 | 0.00 | 49 | 1015.8 |
| 20260507082504 | 58 | 192 | 0.0 | 0.0 | 0.00 | 0.00 | 0.00 | 47 | 1015.8 |
| 20260507082003 | 58 | 192 | 0.0 | 0.0 | 0.00 | 0.00 | 0.00 | 47 | 1015.9 |
| 20260507081511 | 59 | 192 | 0.0 | 0.0 | 0.00 | 0.00 | 0.00 | 45 | 1015.9 |
| 20260507080504 | 60 | 192 | 0.0 | 0.0 | 0.00 | 0.00 | 0.00 | 43 | 1015.9 |
| 20260507075505 | 61 | 192 | 0.0 | 1.0 | 0.00 | 0.00 | 0.00 | 41 | 1015.9 |
| 20260507075006 | 61 | 193 | 0.0 | 1.0 | 0.00 | 0.00 | 0.00 | 41 | 1015.8 |
| 20260507074009 | 61 | 201 | 0.0 | 1.0 | 0.00 | 0.00 | 0.00 | 42 | 1015.8 |
| 20260507073507 | 61 | 201 | 1.0 | 1.0 | 0.00 | 0.00 | 0.00 | 42 | 1015.8 |
| 20260507073013 | 61 | 167 | 0.0 | 1.0 | 0.00 | 0.00 | 0.00 | 43 | 1015.9 |
| 20260507072505 | 62 | 167 | 0.0 | 2.0 | 0.00 | 0.00 | 0.00 | 43 | 1015.9 |
| 20260507072008 | 62 | 167 | 1.0 | 2.0 | 0.00 | 0.00 | 0.00 | 43 | 1015.9 |
| 20260507071536 | 62 | 188 | 0.0 | 1.0 | 0.00 | 0.00 | 0.00 | 42 | 1015.9 |
| 20260507071006 | 63 | 188 | 0.0 | 1.0 | 0.00 | 0.00 | 0.00 | 41 | 1015.8 |
| 20260507070504 | 64 | 187 | 1.0 | 1.0 | 0.00 | 0.00 | 0.00 | 38 | 1015.8 |
| 20260507070016 | 65 | 184 | 0.0 | 1.0 | 0.00 | 0.00 | 0.00 | 33 | 1015.8 |
| 20260507064005 | 66 | 143 | 0.0 | 1.0 | 0.00 | 0.00 | 0.00 | 28 | 1015.8 |
| 20260507063506 | 66 | 143 | 0.0 | 1.0 | 0.00 | 0.00 | 0.00 | 28 | 1015.8 |
| 20260507063016 | 67 | 144 | 0.0 | 1.0 | 0.00 | 0.00 | 0.00 | 28 | 1015.8 |
| 20260507062509 | 68 | 144 | 0.0 | 1.0 | 0.00 | 0.00 | 0.00 | 26 | 1015.7 |
| 20260507062006 | 68 | 143 | 0.0 | 2.0 | 0.00 | 0.00 | 0.00 | 26 | 1015.7 |
| 20260507061518 | 69 | 137 | 0.0 | 2.0 | 0.00 | 0.00 | 0.00 | 26 | 1015.7 |
| 20260507061007 | 69 | 136 | 0.0 | 2.0 | 0.00 | 0.00 | 0.00 | 26 | 1015.6 |
| 20260507060506 | 69 | 140 | 0.0 | 5.0 | 0.00 | 0.00 | 0.00 | 26 | 1015.6 |
| 20260507060013 | 69 | 146 | 1.0 | 5.0 | 0.00 | 0.00 | 0.00 | 25 | 1015.6 |
| 20260507055504 | 69 | 139 | 1.0 | 3.0 | 0.00 | 0.00 | 0.00 | 26 | 1015.5 |
| 20260507054513 | 69 | 158 | 1.0 | 5.0 | 0.00 | 0.00 | 0.00 | 25 | 1015.6 |
| 20260507053014 | 69 | 120 | 1.0 | 3.0 | 0.00 | 0.00 | 0.00 | 25 | 1015.5 |
| 20260507052509 | 69 | 146 | 0.0 | 1.0 | 0.00 | 0.00 | 0.00 | 25 | 1015.5 |
| 20260507052004 | 69 | 143 | 0.0 | 2.0 | 0.00 | 0.00 | 0.00 | 25 | 1015.6 |
| 20260507051528 | 70 | 143 | 0.0 | 2.0 | 0.00 | 0.00 | 0.00 | 25 | 1015.6 |
| 20260507051007 | 70 | 160 | 0.0 | 2.0 | 0.00 | 0.00 | 0.00 | 24 | 1015.5 |
| 20260507050506 | 70 | 133 | 0.0 | 4.0 | 0.00 | 0.00 | 0.00 | 24 | 1015.5 |
| 20260507050022 | 70 | 137 | 1.0 | 4.0 | 0.00 | 0.00 | 0.00 | 24 | 1015.4 |
| 20260507045509 | 71 | 151 | 0.0 | 4.0 | 0.00 | 0.00 | 0.00 | 23 | 1015.5 |
| 20260507045009 | 71 | 152 | 2.0 | 4.0 | 0.00 | 0.00 | 0.00 | 23 | 1015.5 |
| 20260507044521 | 71 | 157 | 0.0 | 4.0 | 0.00 | 0.00 | 0.00 | 23 | 1015.4 |
| 20260507044008 | 71 | 145 | 2.0 | 6.0 | 0.00 | 0.00 | 0.00 | 22 | 1015.4 |
| 20260507043504 | 71 | 134 | 3.0 | 6.0 | 0.00 | 0.00 | 0.00 | 22 | 1015.4 |
| 20260507042505 | 71 | 139 | 2.0 | 5.0 | 0.00 | 0.00 | 0.00 | 22 | 1015.3 |
| 20260507042004 | 71 | 127 | 2.0 | 5.0 | 0.00 | 0.00 | 0.00 | 22 | 1015.3 |
| 20260507041512 | 71 | 147 | 1.0 | 5.0 | 0.00 | 0.00 | 0.00 | 22 | 1015.2 |
| 20260507041003 | 71 | 140 | 2.0 | 6.0 | 0.00 | 0.00 | 0.00 | 22 | 1015.1 |
| 20260507040509 | 71 | 132 | 2.0 | 6.0 | 0.00 | 0.00 | 0.00 | 22 | 1015.2 |
| 20260507040017 | 71 | 114 | 2.0 | 5.0 | 0.00 | 0.00 | 0.00 | 22 | 1015.1 |
| 20260507035506 | 71 | 122 | 1.0 | 5.0 | 0.00 | 0.00 | 0.00 | 22 | 1015.1 |
| 20260507035007 | 72 | 108 | 1.0 | 5.0 | 0.00 | 0.00 | 0.00 | 23 | 1015.1 |
| 20260507034530 | 72 | 149 | 3.0 | 5.0 | 0.00 | 0.00 | 0.00 | 23 | 1015.0 |
| 20260507034006 | 72 | 135 | 1.0 | 4.0 | 0.00 | 0.00 | 0.00 | 22 | 1015.0 |
| 20260507033506 | 72 | 158 | 2.0 | 8.0 | 0.00 | 0.00 | 0.00 | 22 | 1014.9 |
| 20260507033032 | 72 | 131 | 1.0 | 8.0 | 0.00 | 0.00 | 0.00 | 22 | 1014.9 |
| 20260507032509 | 73 | 145 | 2.0 | 5.0 | 0.00 | 0.00 | 0.00 | 21 | 1014.8 |
| 20260507032003 | 73 | 143 | 1.0 | 6.0 | 0.00 | 0.00 | 0.00 | 21 | 1014.7 |
| 20260507031508 | 73 | 148 | 3.0 | 6.0 | 0.00 | 0.00 | 0.00 | 21 | 1014.7 |
| 20260507031004 | 73 | 143 | 2.0 | 6.0 | 0.00 | 0.00 | 0.00 | 21 | 1014.7 |
| 20260507030507 | 73 | 139 | 1.0 | 6.0 | 0.00 | 0.00 | 0.00 | 20 | 1014.6 |
| 20260507030024 | 74 | 143 | 3.0 | 6.0 | 0.00 | 0.00 | 0.00 | 20 | 1014.6 |
| 20260507025504 | 74 | 153 | 2.0 | 5.0 | 0.00 | 0.00 | 0.00 | 20 | 1014.5 |
| 20260507025005 | 74 | 136 | 2.0 | 5.0 | 0.00 | 0.00 | 0.00 | 20 | 1014.4 |
| 20260507024517 | 74 | 149 | 1.0 | 6.0 | 0.00 | 0.00 | 0.00 | 20 | 1014.4 |
| 20260507024008 | 74 | 146 | 1.0 | 6.0 | 0.00 | 0.00 | 0.00 | 19 | 1014.3 |
| 20260507023507 | 75 | 166 | 1.0 | 6.0 | 0.00 | 0.00 | 0.00 | 19 | 1014.4 |
| 20260507023026 | 75 | 160 | 2.0 | 8.0 | 0.00 | 0.00 | 0.00 | 19 | 1014.3 |
| 20260507022507 | 75 | 142 | 3.0 | 8.0 | 0.00 | 0.00 | 0.00 | 18 | 1014.3 |
| 20260507022007 | 75 | 167 | 3.0 | 8.0 | 0.00 | 0.00 | 0.00 | 19 | 1014.3 |
| 20260507021518 | 76 | 132 | 4.0 | 8.0 | 0.00 | 0.00 | 0.00 | 18 | 1014.3 |
| 20260507021010 | 76 | 116 | 4.0 | 8.0 | 0.00 | 0.00 | 0.00 | 18 | 1014.3 |
| 20260507020503 | 76 | 134 | 4.0 | 8.0 | 0.00 | 0.00 | 0.00 | 18 | 1014.2 |
| 20260507020017 | 76 | 122 | 2.0 | 8.0 | 0.00 | 0.00 | 0.00 | 19 | 1014.2 |
| 20260507015503 | 76 | 78 | 3.0 | 7.0 | 0.00 | 0.00 | 0.00 | 19 | 1014.2 |
| 20260507015012 | 76 | 132 | 3.0 | 8.0 | 0.00 | 0.00 | 0.00 | 19 | 1014.2 |
| 20260507014516 | 77 | 148 | 3.0 | 8.0 | 0.00 | 0.00 | 0.00 | 19 | 1014.3 |
| 20260507014006 | 77 | 140 | 3.0 | 7.0 | 0.00 | 0.00 | 0.00 | 18 | 1014.2 |
| 20260507013508 | 77 | 136 | 2.0 | 6.0 | 0.00 | 0.00 | 0.00 | 19 | 1014.3 |
| 20260507013021 | 78 | 139 | 2.0 | 6.0 | 0.00 | 0.00 | 0.00 | 19 | 1014.2 |
| 20260507012510 | 77 | 133 | 3.0 | 6.0 | 0.00 | 0.00 | 0.00 | 19 | 1014.2 |
| 20260507012009 | 77 | 153 | 3.0 | 6.0 | 0.00 | 0.00 | 0.00 | 19 | 1014.1 |
| 20260507011522 | 78 | 146 | 2.0 | 8.0 | 0.00 | 0.00 | 0.00 | 19 | 1014.1 |
| 20260507011007 | 78 | 127 | 1.0 | 9.0 | 0.00 | 0.00 | 0.00 | 19 | 1014.1 |
| 20260507010509 | 78 | 122 | 5.0 | 9.0 | 0.00 | 0.00 | 0.00 | 19 | 1014.0 |
| 20260507010026 | 78 | 134 | 4.0 | 9.0 | 0.00 | 0.00 | 0.00 | 19 | 1014.1 |
| 20260507005510 | 78 | 139 | 3.0 | 9.0 | 0.00 | 0.00 | 0.00 | 19 | 1014.1 |
| 20260507004514 | 79 | 128 | 3.0 | 9.0 | 0.00 | 0.00 | 0.00 | 19 | 1014.1 |
| 20260507004007 | 80 | 122 | 4.0 | 9.0 | 0.00 | 0.00 | 0.00 | 19 | 1014.1 |
| 20260507003508 | 80 | 121 | 4.0 | 8.0 | 0.00 | 0.00 | 0.00 | 18 | 1014.1 |
| 20260507003021 | 79 | 136 | 1.0 | 8.0 | 0.00 | 0.00 | 0.00 | 19 | 1014.1 |
| 20260507002504 | 79 | 143 | 2.0 | 10.0 | 0.00 | 0.00 | 0.00 | 19 | 1014.0 |
| 20260507002010 | 80 | 136 | 5.0 | 10.0 | 0.00 | 0.00 | 0.00 | 18 | 1014.0 |
| 20260507001520 | 80 | 134 | 3.0 | 8.0 | 0.00 | 0.00 | 0.00 | 19 | 1014.0 |
| 20260507001007 | 80 | 144 | 2.0 | 8.0 | 0.00 | 0.00 | 0.00 | 19 | 1014.0 |
| 20260507000509 | 80 | 114 | 4.0 | 8.0 | 0.00 | 0.00 | 0.00 | 19 | 1014.1 |
| 20260507000023 | 80 | 124 | 4.0 | 9.0 | 0.00 | 0.00 | 0.00 | 18 | 1014.1 |
| 20260506235509 | 80 | 154 | 2.0 | 9.0 | 0.00 | 0.00 | 0.00 | 19 | 1014.1 |
| 20260506235009 | 80 | 144 | 2.0 | 8.0 | 0.00 | 0.00 | 0.00 | 19 | 1014.1 |
| 20260506234523 | 80 | 153 | 4.0 | 8.0 | 0.00 | 0.00 | 0.00 | 18 | 1014.2 |
| 20260506233012 | 81 | 143 | 1.0 | 10.0 | 0.00 | 0.00 | 0.00 | 19 | 1014.1 |
| 20260506232504 | 81 | 130 | 2.0 | 10.0 | 0.00 | 0.00 | 0.00 | 18 | 1014.2 |
| 20260506232009 | 82 | 135 | 1.0 | 6.0 | 0.00 | 0.00 | 0.00 | 18 | 1014.2 |
| 20260506231520 | 81 | 138 | 1.0 | 8.0 | 0.00 | 0.00 | 0.00 | 18 | 1014.2 |
| 20260506231007 | 81 | 103 | 2.0 | 8.0 | 0.00 | 0.00 | 0.00 | 19 | 1014.3 |
| 20260506230507 | 81 | 208 | 1.0 | 9.0 | 0.00 | 0.00 | 0.00 | 19 | 1014.3 |
| 20260506230023 | 80 | 159 | 2.0 | 9.0 | 0.00 | 0.00 | 0.00 | 18 | 1014.3 |
| 20260506225508 | 81 | 127 | 3.0 | 7.0 | 0.00 | 0.00 | 0.00 | 19 | 1014.4 |
| 20260506225009 | 81 | 148 | 2.0 | 7.0 | 0.00 | 0.00 | 0.00 | 19 | 1014.4 |
| 20260506224526 | 81 | 163 | 2.0 | 5.0 | 0.00 | 0.00 | 0.00 | 18 | 1014.4 |
| 20260506224012 | 81 | 163 | 1.0 | 6.0 | 0.00 | 0.00 | 0.00 | 19 | 1014.4 |
| 20260506223513 | 80 | 194 | 2.0 | 6.0 | 0.00 | 0.00 | 0.00 | 19 | 1014.4 |
| 20260506223025 | 80 | 139 | 3.0 | 7.0 | 0.00 | 0.00 | 0.00 | 19 | 1014.4 |
| 20260506222509 | 80 | 160 | 3.0 | 7.0 | 0.00 | 0.00 | 0.00 | 20 | 1014.5 |
| 20260506222013 | 80 | 144 | 4.0 | 7.0 | 0.00 | 0.00 | 0.00 | 20 | 1014.5 |
| 20260506221524 | 79 | 243 | 2.0 | 7.0 | 0.00 | 0.00 | 0.00 | 20 | 1014.6 |
| 20260506221007 | 80 | 188 | 2.0 | 9.0 | 0.00 | 0.00 | 0.00 | 19 | 1014.6 |
| 20260506220507 | 81 | 129 | 2.0 | 9.0 | 0.00 | 0.00 | 0.00 | 20 | 1014.6 |
| 20260506220031 | 82 | 142 | 1.0 | 9.0 | 0.00 | 0.00 | 0.00 | 20 | 1014.6 |
| 20260506215508 | 80 | 173 | 0.0 | 9.0 | 0.00 | 0.00 | 0.00 | 22 | 1014.7 |
| 20260506215008 | 79 | 129 | 4.0 | 9.0 | 0.00 | 0.00 | 0.00 | 20 | 1014.8 |
| 20260506214527 | 79 | 109 | 3.0 | 10.0 | 0.00 | 0.00 | 0.00 | 21 | 1014.9 |
| 20260506214009 | 80 | 156 | 3.0 | 12.0 | 0.00 | 0.00 | 0.00 | 21 | 1015.0 |
| 20260506213511 | 80 | 110 | 6.0 | 12.0 | 0.00 | 0.00 | 0.00 | 22 | 1015.1 |
| 20260506213030 | 79 | 123 | 3.0 | 8.0 | 0.00 | 0.00 | 0.00 | 21 | 1015.1 |
| 20260506212509 | 79 | 170 | 2.0 | 8.0 | 0.00 | 0.00 | 0.00 | 21 | 1015.2 |
| 20260506212009 | 79 | 103 | 3.0 | 8.0 | 0.00 | 0.00 | 0.00 | 22 | 1015.2 |
| 20260506211523 | 79 | 242 | 2.0 | 6.0 | 0.00 | 0.00 | 0.00 | 22 | 1015.2 |
| 20260506211008 | 78 | 144 | 2.0 | 7.0 | 0.00 | 0.00 | 0.00 | 23 | 1015.3 |
| 20260506210508 | 78 | 209 | 4.0 | 7.0 | 0.00 | 0.00 | 0.00 | 22 | 1015.4 |
| 20260506210027 | 79 | 185 | 3.0 | 7.0 | 0.00 | 0.00 | 0.00 | 22 | 1015.4 |
| 20260506205510 | 78 | 179 | 1.0 | 7.0 | 0.00 | 0.00 | 0.00 | 23 | 1015.5 |
| 20260506205008 | 79 | 168 | 3.0 | 7.0 | 0.00 | 0.00 | 0.00 | 21 | 1015.5 |
| 20260506204521 | 81 | 127 | 3.0 | 7.0 | 0.00 | 0.00 | 0.00 | 22 | 1015.6 |
| 20260506204006 | 80 | 44 | 1.0 | 5.0 | 0.00 | 0.00 | 0.00 | 23 | 1015.6 |
| 20260506203506 | 80 | 121 | 2.0 | 6.0 | 0.00 | 0.00 | 0.00 | 24 | 1015.6 |
| 20260506203028 | 78 | 345 | 2.0 | 6.0 | 0.00 | 0.00 | 0.00 | 24 | 1015.8 |
| 20260506202509 | 79 | 172 | 3.0 | 6.0 | 0.00 | 0.00 | 0.00 | 23 | 1015.8 |
| 20260506201528 | 78 | 360 | 2.0 | 11.0 | 0.00 | 0.00 | 0.00 | 25 | 1016.0 |
| 20260506201008 | 78 | 116 | 5.0 | 11.0 | 0.00 | 0.00 | 0.00 | 24 | 1016.0 |
| 20260506200508 | 78 | 119 | 1.0 | 5.0 | 0.00 | 0.00 | 0.00 | 27 | 1016.1 |
| 20260506200024 | 77 | 153 | 2.0 | 8.0 | 0.00 | 0.00 | 0.00 | 26 | 1016.1 |
| 20260506195509 | 77 | 115 | 3.0 | 8.0 | 0.00 | 0.00 | 0.00 | 26 | 1016.2 |
| 20260506195013 | 76 | 138 | 1.0 | 7.0 | 0.00 | 0.00 | 0.00 | 26 | 1016.2 |
| 20260506194527 | 76 | 124 | 3.0 | 7.0 | 0.00 | 0.00 | 0.00 | 26 | 1016.3 |
| 20260506194010 | 75 | 197 | 0.0 | 5.0 | 0.00 | 0.00 | 0.00 | 27 | 1016.3 |
| 20260506193509 | 77 | 220 | 3.0 | 4.0 | 0.00 | 0.00 | 0.00 | 25 | 1016.4 |
| 20260506193022 | 77 | 143 | 1.0 | 7.0 | 0.00 | 0.00 | 0.00 | 28 | 1016.5 |
| 20260506192011 | 77 | 96 | 2.0 | 9.0 | 0.00 | 0.00 | 0.00 | 28 | 1016.5 |
| 20260506191504 | 76 | 188 | 2.0 | 5.0 | 0.00 | 0.00 | 0.00 | 26 | 1016.6 |
| 20260506191004 | 76 | 153 | 1.0 | 5.0 | 0.00 | 0.00 | 0.00 | 28 | 1016.7 |
| 20260506190504 | 75 | 146 | 1.0 | 5.0 | 0.00 | 0.00 | 0.00 | 29 | 1016.6 |
| 20260506190007 | 75 | 125 | 2.0 | 5.0 | 0.00 | 0.00 | 0.00 | 29 | 1016.7 |
| 20260506184516 | 76 | 141 | 1.0 | 6.0 | 0.00 | 0.00 | 0.00 | 29 | 1016.8 |
| 20260506183021 | 75 | 338 | 1.0 | 6.0 | 0.00 | 0.00 | 0.00 | 30 | 1017.0 |
| 20260506182011 | 74 | 176 | 1.0 | 7.0 | 0.00 | 0.00 | 0.00 | 31 | 1017.1 |
| 20260506181524 | 75 | 127 | 3.0 | 7.0 | 0.00 | 0.00 | 0.00 | 29 | 1017.1 |
| 20260506180009 | 73 | 160 | 1.0 | 5.0 | 0.00 | 0.00 | 0.00 | 29 | 1017.2 |
| 20260506175506 | 74 | 336 | 2.0 | 5.0 | 0.00 | 0.00 | 0.00 | 29 | 1017.3 |
| 20260506175006 | 75 | 158 | 1.0 | 5.0 | 0.00 | 0.00 | 0.00 | 30 | 1017.3 |
| 20260506174510 | 74 | 148 | 1.0 | 5.0 | 0.00 | 0.00 | 0.00 | 31 | 1017.4 |
| 20260506172005 | 71 | 193 | 1.0 | 5.0 | 0.00 | 0.00 | 0.00 | 34 | 1017.5 |
| 20260506171522 | 70 | 139 | 3.0 | 6.0 | 0.00 | 0.00 | 0.00 | 34 | 1017.6 |
| 20260506170025 | 71 | 198 | 1.0 | 3.0 | 0.00 | 0.00 | 0.00 | 35 | 1017.5 |
| 20260506164003 | 71 | 226 | 1.0 | 4.0 | 0.00 | 0.00 | 0.00 | 38 | 1017.5 |
| 20260506163010 | 69 | 140 | 1.0 | 4.0 | 0.00 | 0.00 | 0.00 | 39 | 1017.4 |
| 20260506161004 | 68 | 162 | 0.0 | 3.0 | 0.00 | 0.00 | 0.00 | 43 | 1017.4 |
| 20260506155009 | 66 | 181 | 0.0 | 3.0 | 0.00 | 0.00 | 0.00 | 45 | 1017.3 |
| 20260506153511 | 67 | 307 | 2.0 | 3.0 | 0.00 | 0.00 | 0.00 | 45 | 1017.3 |
| 20260506152004 | 65 | 258 | 2.0 | 4.0 | 0.00 | 0.00 | 0.00 | 45 | 1017.4 |
| 20260506151513 | 65 | 167 | 1.0 | 3.0 | 0.00 | 0.00 | 0.00 | 47 | 1017.3 |
| 20260506151005 | 64 | 212 | 1.0 | 4.0 | 0.00 | 0.00 | 0.00 | 47 | 1017.4 |
| 20260506150017 | 63 | 276 | 2.0 | 4.0 | 0.00 | 0.00 | 0.00 | 49 | 1017.4 |
| 20260506145505 | 64 | 207 | 1.0 | 4.0 | 0.00 | 0.00 | 0.00 | 49 | 1017.3 |
| 20260506145007 | 63 | 230 | 1.0 | 4.0 | 0.00 | 0.00 | 0.00 | 49 | 1017.2 |
| 20260506144007 | 64 | 235 | 1.0 | 3.0 | 0.00 | 0.00 | 0.00 | 49 | 1017.3 |
| 20260506142510 | 63 | 236 | 1.0 | 3.0 | 0.00 | 0.00 | 0.00 | 51 | 1017.3 |